Location: Nebula Knoll Observatory
(43.6666°N, 71.0000°W)
Time: 07:58:58
(UTC-05:00)

Daily predictions for brighter satellites

Satellite Brightness Start Highest point End
(mag) Time Altitude Azimuth Time Altitude Azimuth Time Altitude Azimuth
MOS 1 4.3 16:56:48 10° SSE 17:02:24 70° ENE 17:08:03 10° N
ATLAS 3B R/B 4.5 16:56:42 10° W 17:02:28 23° NNW 17:08:04 10° NNE
COSMO-SKYMED 1 3.7 17:02:52 10° NE 17:06:26 24° E 17:09:59 10° SSE
USA 215 3.4 17:00:44 10° ESE 17:07:07 56° NNE 17:13:30 10° NW
CZ-4 R/B 1.4 17:03:22 10° SSE 17:07:15 86° WSW 17:11:10 10° NNW
Cosmos 2228 Rocket 3.5 17:03:12 10° N 17:07:23 40° ENE 17:11:33 10° SSE
Lacrosse 5 rocket 2.9 17:05:57 10° NNW 17:08:27 17° NNE 17:11:01 10° ENE
Cosmos 2150 Rocket 4.1 17:03:31 10° NNW 17:08:47 89° WSW 17:13:57 10° SSE
Thor Agena Rocket 3.7 17:04:21 10° NNE 17:09:33 58° ESE 17:14:40 10° S
SPOT 3 Rocket 3.5 17:04:28 10° SSE 17:09:35 75° ENE 17:14:46 10° N
YAOGAN 1 2.5 17:05:25 10° SSE 17:09:42 71° ENE 17:14:03 10° N
Cosmos 1898 Rocket 3.9 17:05:49 10° NNW 17:11:09 72° WSW 17:16:27 10° S
Cosmos 1300 4.1 17:10:19 10° NNE 17:13:03 18° ENE 17:15:47 10° ESE
Meteor 2-2 Rocket 4.5 17:08:44 10° N 17:14:09 47° ENE 17:19:34 10° SSE
NOSS 3-2 (C) 4.3 17:10:39 10° WSW 17:16:34 47° NW 17:23:05 10° NNE
Cosmos 1814 Rocket 4.1 17:13:08 10° SSW 17:18:28 81° ESE 17:23:51 10° NNE
Cosmos 1125 Rocket 4.2 17:14:01 10° N 17:18:36 30° ENE 17:23:08 10° ESE
Cosmos 1408 Rocket 3.6 17:15:50 10° S 17:20:17 87° W 17:24:45 10° N
Cosmos 2322 4.1 17:15:48 10° SSW 17:21:27 69° WNW 17:27:10 10° NNE
Cosmos 1726 3.3 17:18:28 10° NNE 17:21:29 23° ENE 17:24:31 10° SE
Cosmos 990 Rocket 4.0 17:17:58 10° NNW 17:23:16 84° ENE 17:28:32 10° SSE
IDEFIX/ARIANE 42P 3.1 17:18:16 10° S 17:23:26 67° WSW 17:28:40 10° NNW
USA 116 3.4 17:20:52 10° N 17:24:12 74° WNW 17:27:18 10° SSW
Tsikada Rocket 4.1 17:19:57 10° S 17:26:19 86° E 17:32:46 10° N
MONITOR-E 4.3 17:23:19 10° SSE 17:26:26 56° ENE 17:29:33 10° N
SL-16 R/B 4.1 17:24:47 10° WSW 17:29:23 25° NW 17:34:00 10° N
Cosmos 332 Rocket 4.1 17:26:11 10° S 17:30:47 47° ESE 17:35:27 10° NNE
Cosmos 1844 Rocket 2.6 17:27:38 10° NNW 17:33:21 77° ENE 17:38:59 10° SSE
Cosmos 2333 4.2 17:30:21 10° SSW 17:35:56 72° ESE 17:41:31 10° NNE
Meteor 1-28 Rocket 3.9 17:35:26 10° NNE 17:38:49 33° E 17:42:13 10° SSE
Cosmos 841 Rocket 3.5 17:33:53 10° S 17:39:07 69° ESE 17:44:23 10° NNE
Cosmos 1743 Rocket 3.5 17:37:04 10° S 17:41:31 76° E 17:46:01 10° NNE
Cosmos 2058 4.0 17:38:18 10° SE 17:41:37 24° E 17:43:57 15° NE
SJ-6B 3.7 17:40:06 10° SE 17:43:34 28° ENE 17:47:06 10° N
Cosmos 1980 4.2 17:41:47 10° S 17:46:58 38° ESE 17:51:18 14° NE
Cosmos 2360 Rocket 3.4 17:41:44 10° SW 17:47:00 40° WNW 17:52:16 10° NNE
Cosmos 1328 Rocket 3.7 17:42:38 10° N 17:47:05 80° W 17:51:32 10° S
Atlas Centaur 2 4.3 17:45:32 10° SW 17:47:19 12° SSW 17:48:59 10° S
CENTAUR R/B 2.6 17:44:34 10° SW 17:50:41 80° NW 17:57:37 10° NE
Cosmos 1515 Rocket 3.5 17:48:16 10° N 17:52:46 87° E 17:57:13 10° S
ALOS 3.3 17:50:29 10° ESE 17:54:12 24° ENE 17:57:55 10° NNE
Cosmos 1634 Rocket 3.9 17:48:04 10° N 17:54:18 80° E 18:00:27 10° S
SKYMED 2 3.5 17:50:23 10° NNE 17:54:45 80° ESE 17:59:05 10° S
Cosmos 2333 Rocket 2.3 17:51:28 10° S 17:56:56 54° ESE 18:01:37 14° NE
Cosmos 44 4.1 17:52:29 10° S 17:57:15 36° ESE 17:59:39 23° ENE
Cosmos 2151 3.0 17:57:27 10° S 18:01:34 55° E 18:05:41 10° NNE
Cosmos 371 Rocket 3.2 17:56:54 10° S 18:01:41 70° ESE 18:05:57 13° NNE
Aureole 2 Rocket 4.0 17:59:47 10° SSE 18:01:49 21° ESE 18:01:49 21° ESE
FENGYUN 3A 4.3 17:59:07 10° SE 18:03:48 32° ENE 18:08:32 10° N
Cosmos 836 Rocket 4.4 18:00:50 10° SSW 18:06:02 76° ESE 18:11:03 11° NNE
Meteor 1-27 4.3 18:00:37 10° N 18:06:20 58° ENE 18:12:05 10° SSE
Cosmos 1151 Rocket 2.9 18:02:33 10° N 18:06:51 84° E 18:11:07 10° S
Cosmos 1500 Rocket 3.6 18:04:35 10° SSW 18:08:54 76° W 18:13:16 10° N
Lacrosse 5 3.5 18:09:31 10° WNW 18:13:39 24° NNW 18:16:32 15° NNE
Cosmos 1340 Rocket 3.2 18:10:13 10° SSE 18:13:54 39° E 18:14:01 39° E
Cosmos 2219 Rocket 2.2 18:08:56 10° SSW 18:14:35 86° WNW 18:19:38 13° NNE
Cosmos 2278 Rocket 2.1 18:11:19 10° NNW 18:17:02 77° ENE 18:22:43 10° SSE
METEOR-M 4.0 18:13:24 10° SSE 18:18:44 78° ENE 18:24:07 10° N
Meteor 2-10 3.8 18:14:09 10° N 18:19:13 70° ENE 18:24:22 10° SSE
Cosmos 44 Rocket 3.3 18:15:12 10° SSW 18:20:20 86° ESE 18:23:07 27° NE
SL-14 R/B 3.3 18:21:26 10° SSW 18:25:19 79° W 18:28:31 15° N
NOSS 0 Rocket 3.9 18:21:18 10° SSW 18:27:31 85° ESE 18:32:07 19° NNE
OTV 4 2.3 18:26:38 10° WSW 18:29:03 23° S 18:29:10 23° S
Resurs 01 Rocket 1.8 18:31:09 47° NE 18:31:09 47° NE 18:35:03 10° N
Cosmos 372 Rocket 3.9 18:30:37 10° NNW 18:35:44 87° WSW 18:40:49 10° SSE
COSMOS 2428 4.1 18:32:32 10° WSW 18:37:43 35° NW 18:42:57 10° N
COSMO-SKYMED 1 4.3 18:38:45 10° N 18:42:37 32° WNW 18:46:27 10° SW
Cosmos 2237 Rocket 2.2 18:38:03 10° SSW 18:43:41 83° WNW 18:46:42 29° NNE
SL-16 R/B 2.5 18:42:11 10° S 18:46:58 45° SE 18:46:58 45° SE
Cosmos 2279 Rocket 4.3 18:41:39 10° NNW 18:47:49 69° W 18:53:59 10° S
Lacrosse 5 rocket 1.9 18:44:25 10° NW 18:47:13 45° NNW 18:47:13 45° NNW
Cosmos 2369 Rocket 4.4 18:45:41 10° N 18:45:53 10° NNE 18:45:53 10° NNE
Cosmos 2084 3.6 18:44:56 10° SW 18:48:45 56° NW 18:48:51 56° NW
Cosmos 783 Rocket 4.5 18:44:13 10° SSW 18:49:32 86° WNW 18:51:41 38° NNE
USA 215 4.0 18:43:49 10° SSE 18:50:09 51° SW 18:56:31 10° WNW
Cosmos 304 Rocket 3.9 18:45:25 10° S 18:49:27 55° SSE 18:49:27 55° SSE
Cosmos 540 Rocket 3.8 18:46:26 10° SSW 18:51:34 64° WNW 18:54:24 27° N
Cosmos 2297 3.6 18:49:06 10° NNW 18:54:48 74° ENE 18:55:55 57° SE
Nadezhda 4 Rocket 3.9 19:03:40 10° S 19:09:54 88° E 19:13:56 24° N
Spot 2 Rocket 3.7 19:07:02 10° S 19:12:03 68° WSW 19:17:07 10° NNW
Cosmos 1092 Rocket 4.3 19:19:50 10° S 19:24:32 53° S 19:24:32 53° S
ALOS 3.6 19:27:05 10° SSW 19:31:26 38° W 19:35:48 10° NNW
Cosmos 2333 Rocket 4.0 19:36:52 10° WSW 19:41:31 26° NW 19:43:40 21° NNW
CENTAUR R/B 4.3 19:37:21 10° W 19:42:34 24° NNW 19:44:49 21° N
Lacrosse 5 4.4 19:54:43 10° NW 19:55:44 13° NNW 19:55:44 13° NNW
Resurs 01 Rocket 4.4 20:08:42 15° WNW 20:08:42 15° WNW 20:10:22 10° NW
SL-16 R/B 4.5 20:27:00 10° WSW 20:28:56 19° W 20:28:56 19° W
